Regional Weather Roundup
Issued by NWS

Home | Current Version | Previous Version | Text Only | Print | Product List | Glossary Off
Versions: 1 2 3 4 5 6 7 8 9 10 11 12 13 14 15 16 17 18 19 20 21 22 23 24 25 26

000
ASUS45 KCYS 271010
RWRWY

WYOMING REGIONAL WEATHER ROUNDUP
NATIONAL WEATHER SERVICE CHEYENNE WY
400 AM MDT FRI MAY 27 2016

NOTE:  "FAIR" INDICATES FEW OR NO CLOUDS BELOW 12,000 FEET
WITH NO SIGNIFICANT WEATHER AND/OR OBSTRUCTIONS TO VISIBILITY.

WYZ001-271100-
YELLOWSTONE NATIONAL PARK

CITY           SKY/WX    TMP DP  RH WIND       PRES   REMARKS
LK YELLOWSTONE   N/A     32  31  96 CALM      30.05F
W YELLOWSTONE  NOT AVBL

$$
WYZ002>013-054>058-071-098>099-271100-
NORTHERN WYOMING

CITY           SKY/WX    TMP DP  RH WIND       PRES   REMARKS
JACKSON        CLOUDY    41  41 100 CALM      30.01S
CODY           FAIR      43  36  75 CALM      29.94F
GREYBULL       CLOUDY    46  42  86 CALM      29.92S
WORLAND        FAIR      43  41  93 S8        29.92F
SHERIDAN       FAIR      45  40  82 SE3       29.90F
BUFFALO          N/A     45  37  73 MISG      29.93S
GILLETTE       MOCLDY    44  40  85 SW3       29.90S
HULETT         CLOUDY    50  43  76 CALM      29.91S
NEWCASTLE      FAIR      45  34  65 N5        29.91R

$$
WYZ014>020-022>026-101>103-271100-
CENTRAL WYOMING

CITY           SKY/WX    TMP DP  RH WIND       PRES   REMARKS
BIG PINEY      FAIR      37  32  82 CALM      30.03F
PINEDALE       FAIR      32  32 100 CALM      30.05S
DUBOIS         FAIR      32  28  86 W9        30.02S WCI  24
LANDER         FAIR      44  34  67 CALM      29.94F
RIVERTON       FAIR      45  37  73 W6        29.97S
CASPER         MOCLDY    42  38  85 N6        29.95S
DOUGLAS          N/A    N/A N/A N/A MISG      29.94S

$$
WYZ021-027>030-104>119-271100-
SOUTHERN WYOMING

CITY           SKY/WX    TMP DP  RH WIND       PRES   REMARKS
EVANSTON       CLOUDY    37  32  82 SE7       30.04S WCI  32
KEMMERER         N/A     37  32  81 N5        30.03F WCI  34
FORT BRIDGER   MOSUNNY   39  37  93 SW9       30.06S WCI  33
ROCK SPRINGS   CLOUDY    43  40  89 SW5       30.01F
DIXON          FAIR      37  35  92 NE7       30.00S WCI  31
RAWLINS        FAIR      37  33  85 NW9       29.98F WCI  30
SARATOGA       FAIR      36  32  87 CALM      29.98F
LARAMIE        CLOUDY    39  37  92 N3        29.96S
CHEYENNE       FAIR      46  38  73 N16G25    29.89F
TORRINGTON     FAIR      50  40  68 N15       29.84F
PINE BLUFFS    FAIR      45  43  93 N16G22    29.84F

$$




USA.gov is the U.S. government's official web portal to all federal, state and local government web resources and services.